Yakima, WA
on Wednesday, November 21, 2012

Wednesday
Previous Day Next Day
Daily Summary
 ActualAverageRecord
Temperature
Mean Temperature °F 35°F  
Max Temperature 52°F 45°F 62°F (1980)
Min Temperature 33°F 26°F 0°F (1985)
Degree Days
Heating Degree Days 22 30  
Month to date heating degree days 445 545  
Since 1 July heating degree days 982 1249  
Cooling Degree Days 0 0  
Month to date cooling degree days 0 0  
Year to date cooling degree days 667 472  
Moisture
Dew Point 32°F   
Average Humidity 66    
Maximum Humidity 82    
Minimum Humidity 50    
Precipitation
Precipitation T in 0.04 in 0.67 in (1992)
Month to date precipitation 0.56 0.69  
Year to date precipitation 7.09 6.36  
Snow
Snow 0.00 in 0.10 in 5.40 in (1985)
Month to date snowfall 0.8 1.6  
Year to date snowfall 22.3 10.3  
Since 1 July snowfall 0.8 1.7  
Snow Depth 0.00 in   
Wind
Wind Speed 7 mph   
Max Wind Speed 25 mph   
Max Gust Speed 31 mph   
Visibility 10 miles   
Events Rain   

Key: T is trace of precipitation, MM is missing value
Source: NWS Daily Summary
Time(PST)TemperatureDew PointHumidity Pressure Visibility Wind DirectionWind SpeedGust SpeedPrecipitationEvents Conditions
12:53 AM 42.1°F 35.1°F 76% 29.64 in 10.0 miles Calm Calm - N/A   Clear
1:53 AM 43.0°F 36.0°F 76% 29.62 in 10.0 miles Calm Calm - N/A   Overcast
2:53 AM 39.9°F 36.0°F 86% 29.64 in 10.0 miles Calm Calm - 0.00 in Rain Light Rain
3:53 AM 39.9°F 36.0°F 86% 29.66 in 10.0 miles NW 5.8 mph - 0.00 in   Mostly Cloudy
4:53 AM 42.1°F 37.0°F 82% 29.65 in 10.0 miles East 4.6 mph - N/A   Clear
5:53 AM 43.0°F 34.0°F 71% 29.68 in 10.0 miles South 12.7 mph 21.9 mph N/A   Clear
6:53 AM 39.9°F 33.1°F 77% 29.70 in 10.0 miles Calm Calm - N/A   Clear
7:53 AM 45.0°F 32.0°F 60% 29.74 in 10.0 miles WSW 9.2 mph - N/A   Clear
8:53 AM 46.0°F 33.1°F 61% 29.77 in 10.0 miles SW 10.4 mph 20.7 mph N/A   Partly Cloudy
9:53 AM 50.0°F 32.0°F 50% 29.82 in 10.0 miles SW 10.4 mph - N/A   Partly Cloudy
10:53 AM 50.0°F 33.1°F 52% 29.85 in 10.0 miles SSW 15.0 mph 24.2 mph N/A   Partly Cloudy
11:53 AM 50.0°F 33.1°F 52% 29.86 in 10.0 miles SSW 18.4 mph 26.5 mph N/A   Clear
12:53 PM 48.9°F 33.1°F 54% 29.87 in 10.0 miles SSW 20.7 mph 28.8 mph N/A   Scattered Clouds
1:53 PM 50.0°F 34.0°F 54% 29.89 in 10.0 miles South 18.4 mph 27.6 mph N/A   Scattered Clouds
2:53 PM 48.0°F 32.0°F 54% 29.95 in 10.0 miles NW 10.4 mph 20.7 mph N/A   Scattered Clouds
3:53 PM 46.9°F 30.9°F 54% 29.99 in 10.0 miles SSW 3.5 mph - N/A   Scattered Clouds
4:53 PM 39.9°F 30.9°F 70% 30.04 in 10.0 miles West 6.9 mph - N/A   Partly Cloudy
5:53 PM 42.1°F 28.0°F 58% 30.06 in 10.0 miles West 6.9 mph - N/A   Clear
6:53 PM 39.9°F 27.0°F 60% 30.11 in 10.0 miles Calm Calm - N/A   Clear
7:53 PM 36.0°F 27.0°F 70% 30.14 in 10.0 miles Calm Calm - N/A   Clear
8:53 PM 43.0°F 28.0°F 56% 30.17 in 10.0 miles West 6.9 mph - N/A   Partly Cloudy
9:53 PM 39.0°F 27.0°F 62% 30.21 in 10.0 miles ESE 3.5 mph - N/A   Clear
10:53 PM 36.0°F 28.0°F 73% 30.25 in 10.0 miles ENE 3.5 mph - N/A   Clear
11:53 PM 34.0°F 27.0°F 75% 30.29 in 10.0 miles ENE 6.9 mph - N/A   Clear
Moon Phase
Nov. 21 Nov. 28 Dec. 06 Dec. 13 Dec. 20
Sunrise:07:13 AM (PST) Moon Rise:01:01 PM (PST)11/21
Sunset:04:22 PM (PST) Moon Set:12:15 AM (PST)11/21

Copyright © 2014 The Weather Underground, Inc.